Location: Unspecified
(0.0000°N, 0.0000°E)
Time: 07:09:05
(UTC+00:00)

Courier 1B - Visible Passes

Search period start: 06 February 2016 00:00
Search period end: 16 February 2016 00:00
Orbit: 962 x 1209 km, 28.3° (Epoch: 05 February)

Date Brightness Start Highest point End Pass type
(mag) Time Alt. Az. Time Alt. Az. Time Alt. Az.
06 Feb 10.0 05:18:15 10° SSW 05:23:09 19° SSE 05:28:11 10° ESE visible
06 Feb 7.9 18:45:09 10° NW 18:51:33 45° NNE 18:57:44 10° E visible
06 Feb 8.3 20:39:18 10° WNW 20:44:55 46° SW 20:44:55 46° SW visible
07 Feb 10.1 04:25:39 10° S 04:28:59 13° SSE 04:32:23 10° SE visible
07 Feb 7.7 19:45:14 10° WNW 19:51:53 69° SSW 19:55:27 28° SE visible
07 Feb 10.1 21:41:44 10° WSW 21:42:25 12° WSW 21:42:25 12° WSW visible
08 Feb 9.5 05:23:35 10° SSW 05:29:56 31° SSE 05:36:32 10° E visible
08 Feb 7.5 18:51:19 10° WNW 18:58:10 85° NNE 19:04:42 10° ESE visible
08 Feb 9.1 20:46:54 10° W 20:52:16 26° SSW 20:52:56 26° SSW visible
09 Feb 9.8 04:30:29 10° SSW 04:35:54 23° SSE 04:41:33 10° ESE visible
09 Feb 8.8 19:52:22 10° W 19:58:27 37° SSW 20:03:23 14° SSE visible
10 Feb 9.9 03:38:10 11° S 03:41:51 16° SSE 03:46:08 10° ESE visible
10 Feb 8.6 05:29:26 10° SW 05:36:29 53° SSE 05:43:56 10° ENE visible
10 Feb 8.3 18:58:03 10° WNW 19:04:42 52° SSW 19:11:04 10° SE visible
10 Feb 9.8 20:55:40 10° WSW 20:59:07 15° SSW 21:00:43 13° S visible
11 Feb 10.2 02:48:38 11° SSE 02:48:38 11° SSE 02:49:53 10° SE visible
11 Feb 9.0 04:36:04 10° SW 04:42:34 38° SSE 04:49:27 10° E visible
11 Feb 9.6 20:00:22 10° WSW 20:05:11 20° SSW 20:09:53 10° SSE visible
12 Feb 9.3 03:46:07 22° S 03:48:39 28° SSE 03:54:43 10° E visible
12 Feb 7.9 05:35:46 10° WSW 05:42:59 88° NNW 05:50:39 10° ENE visible
12 Feb 9.3 19:05:30 10° W 19:11:19 29° SSW 19:16:54 10° SSE visible
13 Feb 9.9 02:56:41 18° SE 02:56:41 18° SE 02:59:39 10° ESE visible
13 Feb 8.0 04:43:40 18° SW 04:49:06 68° SSE 04:56:32 10° ENE visible
13 Feb 10.0 20:10:03 10° SW 20:12:08 11° SSW 20:14:12 10° S visible
14 Feb 8.3 03:54:13 45° S 03:55:15 49° SSE 04:02:15 10° ENE visible
14 Feb 8.1 05:42:38 10° WSW 05:49:31 50° NNW 05:56:49 10° NE visible
14 Feb 9.9 19:14:00 10° WSW 19:18:06 16° SSW 19:22:07 10° SSE visible
15 Feb 9.6 03:04:44 23° ESE 03:04:44 23° ESE 03:07:45 10° E visible
15 Feb 7.7 04:51:42 28° WSW 04:55:36 69° NNW 05:03:00 10° NE visible
